Location: New Greens
(51.7702°N, 0.3379°W)
Time: 02:24:09
(UTC+00:00)

OTV 5 (USA 277) - Visible Passes

Search period start: 24 April 2019 00:00
Search period end: 04 May 2019 00:00
Orbit: 309 x 326 km, 54.5° (Epoch: 21 April)

Date Brightness Start Highest point End Pass type
(mag) Time Alt. Az. Time Alt. Az. Time Alt. Az.
24 Apr ? 21:10:16 10° SW 21:12:45 55° S 21:12:45 55° S visible
25 Apr ? 19:51:27 10° SSW 19:53:35 21° SE 19:55:43 10° E visible
25 Apr ? 21:24:56 10° WSW 21:27:40 80° NNW 21:28:14 51° ENE visible
26 Apr ? 20:05:33 10° SW 20:08:09 40° SSE 20:10:44 10° ENE visible
26 Apr ? 21:39:46 10° W 21:42:27 53° NNW 21:43:08 39° NE visible
27 Apr ? 20:20:05 10° WSW 20:22:49 79° SSE 20:25:32 10° ENE visible
27 Apr ? 21:54:39 10° WNW 21:57:17 44° N 21:57:40 40° NNE visible
28 Apr ? 20:34:51 10° W 20:37:34 63° NNW 20:40:17 10° ENE visible
28 Apr ? 22:09:30 10° WNW 22:11:59 44° N 22:11:59 44° N visible
29 Apr ? 20:49:42 10° W 20:52:23 47° N 20:55:02 10° ENE visible
29 Apr ? 22:24:16 10° WNW 22:26:11 37° NW 22:26:11 37° NW visible
30 Apr ? 21:04:35 10° WNW 21:07:13 43° N 21:09:25 13° ENE visible
30 Apr ? 22:39:01 10° WNW 22:40:17 24° WNW 22:40:17 24° WNW visible
01 May ? 21:19:23 10° WNW 21:22:04 48° N 21:23:29 23° ENE visible
01 May ? 22:53:46 10° WNW 22:54:21 15° WNW 22:54:21 15° WNW visible
02 May ? 21:34:08 10° WNW 21:36:52 67° NNE 21:37:31 44° E visible
03 May ? 20:14:29 10° WNW 20:17:08 45° N 20:19:46 10° E visible
03 May ? 21:48:52 10° WNW 21:51:32 72° SW 21:51:32 72° SW visible
